Theta_e
299 299 300 301 301 301 301 301 301 301 301 302 301 301 301 302 301 298 294 297 289 283 284 286 286 282 281 281 276 274 275 274 274 269 268 269 265 270 267 271 271 267 263 262 261 258 261 276 275 271 276 280 279 279
298 298 299 299 300 300 300 301 301 301 301 301 301 301 301 301 301 300 292 296 296 286 285 289 290 290 288 287 282 277 278 274 278 272 272 272 265 267 267 260 275 265 271 265 269 268 277 278 278 280 280 277 279 279
297 297 298 298 298 299 299 299 300 300 300 301 301 301 301 301 301 299 293 294 292 285 285 285 283 289 292 290 290 279 279 283 281 284 278 277 272 271 264 266 270 274 276 272 272 275 276 279 280 281 281 280 280 280
297 297 297 297 297 298 298 297 298 298 299 300 300 300 301 301 301 300 293 294 291 286 280 281 289 287 291 291 289 289 286 286 284 284 279 277 274 278 273 275 273 275 275 273 273 276 278 279 280 280 281 281 280 280
296 297 297 297 297 297 297 297 297 297 298 298 299 299 300 300 301 299 297 295 294 286 280 278 282 285 289 290 288 288 286 283 283 280 279 275 277 278 279 277 275 278 276 273 272 278 277 278 280 280 279 279 279 278
296 296 296 297 297 297 296 296 296 296 297 297 297 298 299 300 300 294 286 294 295 293 284 277 284 281 285 287 286 285 286 284 283 281 279 280 281 278 274 273 278 279 280 280 278 281 280 280 281 280 279 278 277 275
295 295 295 296 296 296 295 295 295 296 296 296 297 297 298 299 296 287 285 290 296 294 283 278 278 281 282 283 282 281 283 283 283 281 279 279 280 280 276 272 278 279 279 280 281 280 277 279 278 276 276 273 271 270
294 294 294 294 294 294 294 294 294 295 295 296 296 296 297 297 296 290 293 295 295 286 284 277 276 271 277 279 278 283 281 282 282 279 275 277 277 277 273 277 279 279 280 280 280 279 277 274 273 271 271 269 266 267
294 293 293 293 293 293 293 293 294 294 294 295 295 296 293 289 286 287 296 296 293 287 278 278 273 271 274 274 277 279 281 274 278 275 276 275 273 271 274 277 278 279 279 279 272 270 269 269 270 268 267 265 264 266
292 291 291 290 291 291 292 292 293 293 294 294 291 285 282 286 295 295 289 285 284 283 282 277 275 270 276 274 275 273 276 271 270 273 276 273 272 278 279 279 278 276 273 272 267 265 263 263 266 265 263 264 264 265
290 290 290 290 290 291 291 292 292 292 292 287 283 282 287 293 288 284 280 279 280 276 279 276 278 270 275 270 273 278 271 270 265 266 269 264 263 276 278 278 269 269 267 265 265 265 264 263 265 264 263 263 262 261
290 290 290 290 290 291 291 291 291 289 286 286 286 287 286 283 281 277 275 275 277 273 274 272 273 280 276 279 275 275 272 272 267 264 266 260 271 274 269 266 265 265 263 260 260 261 261 263 261 260 260 259 257 256
289 289 289 290 290 290 290 290 290 290 290 286 283 280 278 279 273 272 268 268 266 270 272 269 273 277 276 278 275 273 270 268 268 267 262 264 269 263 260 259 257 257 257 256 256 256 257 257 256 254 252 251 250 249
287 288 288 289 289 290 290 290 290 288 285 278 275 270 273 271 273 270 268 268 272 271 272 275 273 273 276 273 275 269 270 266 264 260 259 265 267 262 258 256 255 255 256 256 253 253 253 253 253 251 251 249 247 246
287 287 288 288 289 289 289 290 290 286 282 275 276 269 269 268 263 261 261 267 267 273 276 273 272 275 272 272 273 267 264 263 261 261 266 265 258 257 255 253 253 254 253 253 252 250 251 250 249 247 246 245 244 244
287 286 284 287 287 288 289 288 285 284 281 277 275 271 265 265 261 261 261 265 266 273 273 274 272 270 269 271 267 265 263 258 262 263 259 255 251 252 252 251 252 252 249 249 248 248 248 246 245 244 242 243 244 244
284 280 284 286 286 284 286 283 280 277 276 270 265 261 268 270 266 261 263 266 269 272 267 269 268 267 271 268 266 264 261 262 258 256 255 254 252 250 249 249 247 246 245 246 245 244 244 243 242 242 243 245 245 246
276 281 286 286 283 279 271 270 273 271 265 263 263 258 260 259 261 263 265 267 268 272 273 270 271 267 266 265 264 263 258 254 255 254 252 248 247 248 248 247 244 245 245 246 244 242 242 242 242 245 245 246 247 248
279 281 283 283 279 273 269 265 266 262 257 259 260 259 259 258 259 260 261 264 265 266 267 270 268 267 266 263 259 256 255 256 254 254 250 247 249 248 247 247 248 248 248 245 243 245 245 244 246 246 247 247 248 249
281 280 280 278 277 267 262 262 266 263 259 258 260 258 258 256 258 258 258 261 262 266 267 266 261 255 255 252 252 254 255 256 255 252 249 248 247 246 250 251 252 251 247 244 244 247 246 247 247 247 247 248 247 249
276 276 276 269 265 263 259 259 256 257 257 255 256 258 254 257 256 255 257 257 261 261 258 252 251 251 251 251 251 253 252 253 251 251 251 250 250 252 250 250 250 247 246 245 246 246 247 246 246 247 246 247 249 253
270 275 270 271 263 259 258 259 258 257 254 251 252 255 252 251 250 251 252 257 255 248 249 250 251 252 252 249 248 248 248 249 249 251 252 250 247 249 248 246 245 245 245 246 246 246 247 250 252 251 250 251 254 255
268 269 264 263 261 258 254 256 254 251 250 250 249 250 249 248 247 252 254 249 246 244 244 245 246 246 249 248 247 247 246 248 249 245 245 246 244 244 247 245 245 245 245 248 251 252 252 255 254 254 254 255 255 254
262 255 254 254 255 252 252 250 253 252 251 251 250 248 248 251 251 254 253 248 244 244 246 244 246 247 248 248 249 248 245 244 245 244 242 243 244 244 244 245 245 246 248 249 250 252 252 253 255 254 254 254 253 253
258 248 249 248 252 252 252 253 253 255 251 248 252 252 249 248 251 251 248 246 249 250 249 248 249 250 250 248 247 245 241 242 243 243 243 243 244 245 247 247 248 250 252 251 251 252 252 253 253 254 253 253 252 252
245 241 242 241 243 245 246 251 250 250 251 251 248 248 245 249 250 245 245 248 248 248 247 246 246 245 244 243 243 243 244 241 243 245 246 245 246 246 248 251 252 253 254 253 253 253 253 254 253 252 252 253 253 253
243 240 241 241 241 242 242 243 246 250 249 249 249 250 249 247 244 244 246 245 244 243 242 242 242 243 244 244 244 243 244 245 247 248 248 249 250 250 251 250 250 252 253 254 254 254 253 253 253 252 252 253 253 253
239 239 239 240 240 239 240 241 241 241 242 242 241 243 245 244 245 244 243 243 241 241 242 242 243 245 246 248 248 248 248 248 249 249 250 251 250 250 249 250 251 259 253 254 254 254 253 253 252 252 252 252 253 253
238 238 238 239 239 240 239 239 239 240 241 240 241 243 243 243 241 242 246 245 246 247 246 245 246 247 250 253 253 253 253 253 252 251 250 249 248 250 249 249 249 250 251 252 256 258 254 253 253 253 253 253 253 252
242 240 244 246 246 243 240 238 239 237 240 240 240 243 245 248 249 247 247 247 248 246 246 247 249 252 253 254 254 254 253 252 251 251 248 247 247 246 247 250 251 251 251 250 251 251 254 251 249 246 247 248 246 248
238 236 240 242 243 241 238 237 237 237 238 239 238 241 245 245 248 249 249 249 248 249 250 252 253 253 253 253 253 253 252 250 248 249 248 249 250 251 251 252 252 251 249 249 248 247 248 246 244 245 245 245 246 247
241 241 242 243 242 236 232 233 233 234 234 239 242 242 244 246 249 250 251 250 251 251 252 252 252 251 252 252 252 252 252 251 252 253 252 252 253 254 255 255 254 252 250 250 249 249 249 248 248 247 247 247 247 246
242 242 242 244 245 245 243 242 245 244 244 243 244 243 243 245 248 250 253 250 249 248 249 249 250 251 251 251 252 252 253 253 253 258 258 258 257 258 257 256 255 255 253 251 250 250 248 247 247 247 246 246 247 247
Wind_Speed
16 14 16 19 19 20 19 18 17 18 17 19 18 19 19 20 18 10 3 6 4 3 3 4 4 4 4 3 5 4 5 3 1 3 5 5 4 6 2 5 5 7 6 6 2 2 8 1 4 7 5 3 5 6
22 19 16 15 13 16 17 17 18 16 17 19 21 19 19 20 20 17 4 5 3 3 2 4 7 6 5 9 6 4 4 5 5 3 3 2 2 1 5 5 5 3 9 6 8 7 4 6 6 7 4 5 7 7
21 20 20 19 18 15 11 11 13 17 19 19 20 21 20 19 20 18 5 5 4 2 3 4 7 8 6 6 6 6 2 6 3 4 3 3 5 5 5 7 4 5 8 6 6 9 14 19 15 13 13 11 9 8
20 19 20 18 18 18 16 15 14 12 11 14 18 19 21 22 21 19 8 5 6 2 4 7 3 11 10 10 9 6 5 4 3 2 2 4 5 5 6 9 8 11 4 10 11 11 16 15 13 14 14 16 14 10
19 17 17 18 18 17 15 15 15 15 14 14 12 14 16 20 20 13 7 6 8 7 2 1 1 4 7 13 14 12 9 8 4 4 5 6 3 6 4 3 9 16 22 12 11 16 13 14 12 9 8 8 7 6
17 16 16 17 16 16 15 15 15 15 16 15 15 14 16 16 16 3 3 9 13 8 3 4 1 3 8 11 13 13 11 8 7 5 5 6 8 5 5 9 16 14 11 14 17 15 13 14 13 11 7 7 4 4
17 16 15 15 15 15 14 14 15 16 17 17 17 16 16 18 9 4 3 1 13 10 4 4 3 3 3 6 4 2 5 5 6 7 7 9 5 6 6 12 16 13 11 14 15 9 11 12 8 3 4 6 7 6
16 15 13 13 13 14 14 15 14 14 15 16 16 16 16 17 15 11 7 12 8 1 3 3 3 2 3 4 5 2 4 5 6 5 1 7 2 4 8 12 13 13 15 16 14 8 8 3 5 5 4 4 3 3
15 14 12 12 12 13 13 14 13 12 12 12 12 12 6 6 5 2 13 18 7 4 3 3 6 5 3 2 3 3 4 5 4 5 7 5 5 8 9 14 15 18 14 15 5 5 4 3 4 5 5 4 2 3
14 13 11 11 13 14 16 14 11 10 10 10 3 3 4 5 14 12 7 6 8 6 6 4 3 6 7 4 6 4 3 4 4 7 3 6 12 19 16 18 11 6 7 7 4 2 2 2 5 5 4 4 3 3
13 11 11 12 12 13 13 13 12 10 5 3 4 4 1 7 3 5 7 7 5 5 4 5 11 6 3 5 5 5 4 4 4 7 9 5 5 13 15 12 6 7 7 4 5 5 5 4 5 6 5 5 4 4
13 13 13 14 13 13 12 12 12 7 3 3 1 2 1 3 4 6 7 4 5 7 5 5 5 6 4 2 3 5 4 5 6 2 3 5 5 10 5 4 7 6 7 6 4 6 5 5 4 4 3 2 3 3
9 11 12 14 14 15 15 15 15 13 9 1 3 4 4 5 10 9 10 3 3 3 4 3 4 5 3 4 3 5 7 7 5 5 6 6 5 3 6 6 6 5 7 7 5 6 6 5 4 3 2 1 2 1
8 10 12 14 15 16 16 16 14 11 3 5 6 8 8 6 4 4 6 5 4 4 9 7 4 4 4 6 4 5 3 4 5 5 8 5 7 6 6 4 7 6 6 7 7 6 5 3 2 2 1 1 1 4
12 14 15 15 16 16 17 19 20 6 4 5 5 7 8 3 3 2 1 2 1 3 8 5 2 3 3 4 4 4 5 5 7 8 6 3 4 7 7 4 5 7 6 6 5 5 4 3 1 2 3 3 3 4
11 5 4 5 10 15 17 16 7 5 4 6 5 2 0 3 2 2 1 0 2 3 3 3 3 4 5 4 7 7 8 8 6 5 2 3 4 5 7 6 6 5 4 4 4 4 3 2 2 3 5 4 5 5
7 3 11 11 2 8 11 6 2 3 4 7 3 2 2 2 3 1 2 2 3 4 4 3 7 8 2 4 5 4 6 4 2 2 3 3 5 6 6 7 6 4 4 4 3 3 2 1 3 2 4 4 4 5
3 6 12 4 3 6 4 5 3 1 3 2 3 2 2 2 1 2 1 3 1 2 3 3 3 4 5 6 3 3 3 2 4 4 4 3 5 6 6 7 5 4 3 2 2 1 2 1 1 3 3 4 4 5
3 4 14 13 6 4 3 3 3 3 3 2 3 2 2 2 1 2 2 2 1 1 3 1 4 3 3 3 3 2 2 1 3 3 3 3 4 6 6 7 5 3 3 3 3 1 2 4 3 2 2 2 2 3
3 9 8 14 7 4 5 3 3 3 2 2 2 2 2 1 2 1 1 2 1 1 3 2 2 2 2 2 2 2 2 3 4 3 2 1 2 3 5 5 3 4 3 2 1 1 1 2 1 1 1 2 2 3
4 5 9 6 4 7 5 3 4 2 1 3 2 2 1 1 2 2 2 4 1 2 2 2 2 2 3 3 3 3 5 4 3 1 3 3 2 3 4 3 4 2 2 2 2 1 1 2 2 1 1 2 2 2
3 6 3 4 5 4 5 5 2 1 3 1 2 2 3 2 3 3 4 1 4 2 3 3 2 2 2 3 3 4 3 3 1 3 7 8 3 2 2 3 4 2 2 3 2 2 2 2 1 1 1 2 3 3
5 4 4 5 5 6 2 1 3 4 4 1 2 3 3 2 2 3 1 2 2 1 2 2 2 2 2 1 0 0 3 3 3 3 4 4 2 2 4 3 3 4 1 2 2 1 1 1 2 1 2 3 3 3
11 8 7 5 6 2 1 3 2 3 2 3 2 3 2 2 4 0 2 2 2 1 0 1 1 1 1 1 1 1 1 1 2 4 2 3 3 1 2 2 2 1 2 2 2 2 1 1 2 2 2 3 3 3
7 10 6 7 4 4 4 3 3 2 3 3 2 2 2 3 2 3 2 3 1 1 1 0 0 2 2 1 1 2 3 2 2 3 3 2 2 3 3 1 2 3 3 2 2 2 2 2 2 3 3 3 4 5
10 6 5 4 4 4 3 2 4 3 2 2 3 1 2 2 3 1 2 3 3 2 1 1 1 1 2 2 2 1 3 3 3 3 2 3 3 3 2 1 0 2 3 3 2 2 3 3 3 5 4 6 6 5
7 5 4 1 1 1 3 1 1 2 4 4 3 3 3 4 2 3 2 2 2 2 2 2 1 1 1 1 1 1 1 3 3 3 2 1 2 3 3 2 2 3 2 3 3 4 4 4 4 5 5 5 6 6
3 4 3 5 3 0 3 2 3 3 2 2 2 4 3 2 1 3 2 3 2 3 2 2 1 1 2 2 1 2 1 1 2 3 2 2 1 1 1 1 2 5 3 3 4 4 5 6 6 6 7 8 8 5
4 3 0 4 3 4 4 2 1 0 2 1 2 2 1 1 3 2 3 3 4 3 3 3 3 2 1 1 1 2 2 1 3 3 3 2 3 3 2 1 2 2 2 3 7 8 8 8 8 8 9 8 7 5
4 3 4 4 3 4 1 1 1 1 1 2 2 3 2 2 1 1 3 3 3 2 2 2 2 1 3 3 3 2 3 3 2 2 1 1 4 4 3 4 4 4 3 4 5 5 7 5 5 4 4 5 4 5
2 3 3 2 2 0 1 1 0 1 1 1 0 1 1 3 3 0 2 3 2 2 2 2 2 2 3 3 3 3 2 2 3 3 2 3 4 5 5 5 4 4 3 4 4 4 5 4 4 6 7 9 9 8
2 3 3 4 3 2 1 2 1 1 1 1 1 1 2 1 3 3 4 6 5 5 6 5 5 4 4 3 2 1 2 3 4 4 6 4 5 6 6 6 5 4 4 5 5 6 7 8 7 7 8 10 10 9
2 1 1 2 2 2 3 4 1 2 1 2 3 2 2 2 4 2 2 3 3 3 3 3 3 3 3 3 2 3 4 4 6 10 11 12 13 11 8 5 5 5 6 6 7 7 8 9 10 10 10 10 11 11
Wind_Direction
254 249 244 242 244 245 241 236 232 233 223 215 207 207 211 216 217 206 198 187 156 191 258 213 205 166 117 148 139 187 84 312 120 184 164 207 186 212 190 218 182 156 166 217 156 220 280 195 112 171 227 140 173 208
255 246 238 246 251 241 240 242 245 243 222 225 228 229 222 210 208 196 202 183 198 182 297 320 275 246 185 180 137 199 163 150 164 152 197 176 182 211 167 233 159 245 203 195 175 203 217 195 219 224 251 214 231 232
239 244 241 244 248 235 236 237 240 241 244 237 229 229 231 227 224 213 199 147 165 192 227 216 215 234 240 238 174 138 231 160 225 184 178 184 228 145 178 231 250 247 229 224 245 247 257 264 264 259 271 266 256 248
240 240 236 234 239 238 240 240 243 245 248 244 246 240 240 228 229 222 210 180 178 159 229 249 195 223 214 210 223 232 170 118 89 124 210 204 218 206 219 233 211 220 142 228 250 251 258 265 257 262 261 265 269 270
233 234 238 236 231 228 227 236 245 249 246 246 242 246 246 236 227 226 215 176 198 192 216 226 97 241 184 196 204 213 210 199 172 185 213 221 228 243 236 231 230 230 235 238 247 248 249 261 267 250 248 236 248 245
225 230 233 231 228 228 232 238 244 248 247 252 249 239 240 237 232 213 228 202 190 189 227 205 314 194 173 177 197 205 209 212 207 203 218 232 245 212 224 242 242 234 239 240 253 253 257 270 267 259 230 243 198 163
227 227 228 230 227 230 239 243 250 250 249 249 247 249 239 236 217 197 195 340 193 171 184 212 167 239 233 156 197 176 181 198 210 221 223 236 215 211 232 238 239 252 240 242 243 252 269 264 252 93 122 96 88 84
227 221 217 223 229 233 240 248 249 253 252 246 245 247 247 243 243 229 178 137 154 154 200 237 150 99 205 159 179 174 180 192 199 211 238 221 211 214 248 248 244 246 249 258 253 234 249 116 109 99 86 103 105 148
210 212 210 216 226 235 242 246 247 246 249 244 243 241 251 225 211 179 175 182 170 185 209 178 160 205 114 163 117 162 185 187 194 211 223 152 220 224 226 244 243 243 235 248 117 106 91 120 150 135 125 108 150 170
195 211 219 237 249 252 251 234 239 242 238 229 206 177 223 200 134 147 188 213 194 189 202 185 159 185 161 149 174 136 194 203 198 226 131 200 237 242 246 243 246 207 161 136 124 270 122 186 177 155 161 131 125 129
207 214 232 247 243 246 236 228 219 214 223 136 212 210 192 185 145 184 206 198 170 196 184 185 189 145 268 144 168 199 169 194 199 243 168 221 242 231 238 242 144 132 128 96 104 110 111 128 161 151 155 158 149 137
236 238 242 245 234 225 219 217 214 198 165 166 132 39 337 197 202 231 180 191 205 199 181 167 178 158 153 124 156 168 191 187 217 142 130 242 217 231 150 112 93 87 106 102 82 113 104 112 75 88 86 102 102 88
256 250 245 238 231 226 226 228 219 208 179 124 170 224 229 191 211 198 175 202 183 163 158 166 145 128 141 199 178 173 209 206 113 170 220 220 217 140 148 129 114 108 106 114 93 78 79 83 61 65 84 57 105 247
254 248 240 237 237 235 234 227 223 222 151 228 180 203 219 204 233 180 185 175 189 142 157 171 120 153 167 181 179 203 144 122 192 203 224 223 209 174 140 113 120 140 128 124 120 106 104 97 86 45 333 255 175 265
289 260 246 244 243 239 236 228 225 200 203 202 233 217 201 172 52 92 2 53 330 145 145 110 79 151 158 209 181 108 175 211 205 214 213 200 148 132 135 123 132 146 146 135 124 126 119 106 103 291 278 260 237 262
328 270 358 297 261 255 243 234 217 162 214 195 218 247 329 34 70 70 77 78 275 130 61 80 149 195 213 197 171 199 169 211 226 210 164 114 109 117 126 120 116 111 117 115 119 134 136 140 197 248 309 290 258 227
28 51 341 310 152 54 358 204 140 233 244 157 158 14 33 100 115 83 12 38 302 153 175 156 190 196 119 211 195 177 205 211 143 108 44 59 132 131 111 101 100 109 120 128 128 138 159 120 66 30 320 286 266 250
43 334 330 11 125 62 41 21 60 206 158 72 156 127 65 29 65 98 67 30 327 267 155 205 126 202 200 179 222 233 95 90 40 65 77 56 74 92 102 116 113 119 125 124 128 133 96 95 252 254 245 276 308 305
6 46 21 29 59 85 77 52 357 100 27 31 94 52 45 92 42 43 329 319 303 269 301 245 220 194 193 37 21 40 42 90 130 105 91 53 105 114 107 102 117 136 142 152 154 182 190 185 208 254 280 336 307 298
58 43 23 34 40 73 79 40 329 86 93 77 41 65 58 42 334 329 122 352 6 298 219 221 29 36 20 40 340 11 33 79 113 104 86 103 113 114 122 135 134 140 140 105 51 192 343 325 300 4 344 302 350 319
32 2 32 58 50 54 70 18 63 44 71 71 350 12 51 323 51 10 33 340 290 47 62 39 70 90 64 38 359 334 31 14 42 78 130 133 152 128 121 113 123 108 122 138 139 178 117 180 236 280 336 303 307 298
12 15 58 50 79 62 73 10 56 65 59 130 54 24 30 25 17 7 301 356 50 40 15 360 31 26 83 52 6 19 355 1 20 78 69 96 108 114 139 162 113 141 148 179 151 164 222 211 220 258 270 284 296 286
23 32 55 17 84 46 26 304 75 1 86 294 19 72 13 29 283 304 75 76 94 2 5 29 22 7 50 81 157 41 355 7 70 64 62 78 96 95 102 115 127 129 130 254 160 184 217 188 285 278 284 289 290 294
30 45 32 44 25 66 10 26 73 73 51 34 60 81 31 350 324 344 57 26 274 203 100 27 279 154 170 193 66 58 282 359 65 40 24 112 100 343 130 150 145 168 170 151 160 205 201 228 244 263 268 284 289 287
69 5 9 20 13 19 43 29 8 53 58 351 26 91 19 328 58 48 49 313 1 47 80 171 283 28 55 72 10 340 306 132 138 127 278 104 99 44 27 357 230 215 169 145 220 213 224 203 236 254 268 271 276 286
68 334 56 339 346 60 341 49 32 28 357 82 46 3 341 26 62 4 314 322 346 352 327 240 182 28 340 207 173 224 251 178 77 80 277 161 155 135 159 149 295 299 175 167 187 207 227 228 236 256 267 274 278 282
59 343 338 182 174 329 29 354 325 355 41 33 8 358 24 67 26 276 313 8 323 305 273 277 186 122 212 288 336 259 164 163 149 178 226 183 206 188 161 175 224 241 165 173 204 215 231 241 248 252 262 263 250 250
109 25 49 316 11 21 112 37 48 51 350 329 29 35 90 88 249 283 256 273 244 279 277 281 12 17 350 345 8 105 79 183 270 297 305 279 228 208 227 256 266 270 225 209 220 225 226 237 245 252 255 263 273 250
39 329 29 352 3 49 50 78 161 353 356 10 94 53 334 290 237 303 315 320 304 328 11 19 342 330 330 11 25 26 42 49 17 31 34 352 358 334 346 322 283 267 247 247 260 247 231 235 240 244 250 255 262 255
11 354 331 2 38 39 282 35 321 328 315 2 319 276 241 248 304 310 302 330 3 355 314 301 308 14 37 14 356 21 41 20 49 121 146 252 241 265 280 279 269 258 243 235 253 267 286 302 316 320 303 290 274 274
312 359 358 357 71 336 57 3 267 252 264 274 147 305 343 323 296 255 332 330 297 305 331 17 34 20 17 21 12 352 48 6 8 336 269 261 268 270 271 265 256 243 234 236 245 250 260 260 247 266 269 270 270 263
329 29 344 355 338 269 71 76 177 103 311 59 31 240 282 271 66 7 360 349 5 24 24 22 24 27 4 3 10 358 283 283 291 286 282 268 271 275 280 273 260 241 237 247 247 251 252 254 264 259 264 268 267 263
310 309 276 308 328 26 13 334 245 96 55 58 35 12 34 23 82 332 355 46 28 355 356 346 325 321 328 320 284 279 270 269 289 316 318 311 307 305 305 300 295 274 261 259 255 250 251 252 259 261 260 261 265 267